Torna al catalogo

STARLINK-5012

AttivoComunicazioniVLEO
NORAD 53918·PAYLOAD·🇺🇸 United States

Lanciato Sep 24, 2022 da Cape Canaveral Space Force Station

Loading…

Prossimi Passaggi (prossime 24 ore)

TLE

AggiornatoSource: CelesTrak SupGP

Epoca: Sep 15, 2026, 01:28 UTC

1 53918C 22119AJ  26258.06159722 -.00022205  00000+0 -13927-2 0  2580
2 53918  53.1583 183.2738 0001543  86.6881 319.1490 15.08841194    14

Traccia STARLINK-5012 in tempo reale con AllMySat

Download on the App Store